Weather History for Canby, MN

Change the Weather History Date:

Saturday, January 19, 2013

  Actual Average (KMML) Record (KMML)
Temperature  
Mean Temperature 20 °F -  
Max Temperature 38 °F 25 °F 47 °F (1981)
Min Temperature 2 °F 4 °F -29 °F (1970)
Degree Days  
Heating Degree Days 45    
Moisture  
Dew Point 19 °F    
Average Humidity 77    
Maximum Humidity 85    
Minimum Humidity 69    
Precipitation  
Precipitation 0.00 in - - ()
Sea Level Pressure  
Sea Level Pressure 29.97 in    
Wind  
Wind Speed 14 mph (WNW)    
Max Wind Speed 33 mph    
Max Gust Speed 43 mph    
Visibility 10 miles    
Events Snow    
Averages and records for this station are not official NWS values.
T = Trace of Precipitation, MM = Missing Value Source: NWS Daily Summary

Daily Weather History Graph

Daily Weather History Graph

Search for Another Location

Airport:

Trip Planner

Search our weather history database for the weather conditions in past years. The results will help you decide how hot, cold, wet, or windy it might be!

Date:

Astronomy

Jan. 19, 2013 Rise Set
Actual Time 7:56 AM CST 5:16 PM CST
Civil Twilight 7:23 AM CST 5:48 PM CST
Nautical Twilight 6:48 AM CST 6:24 PM CST
Astronomical Twilight 6:13 AM CST 6:59 PM CST
Moon 11:45 AM CST (1/19) 1:27 AM CST (1/19)
Length of Visible Light 10h 24m
Length of Day
9h 20m
First Quarter, 57% of the Moon is Illuminated
Jan 19
First Quarter
Jan 26
Full
Feb 3
Last Quarter
Feb 10
New
Feb 17
First Quarter

Hourly Weather History & Observations

Time (CST) Temp. Windchill Dew Point Humidity Pressure Visibility Wind Dir Wind Speed Gust Speed Precip Events Conditions
12:16 AM 37.9 °F 30.9 °F 31.8 °F 79% 29.74 in 10.0 mi SW 10.4 mph - N/A   Overcast
12:36 AM 38.3 °F 33.2 °F 31.6 °F 77% 29.73 in 10.0 mi SW 6.9 mph - N/A   Overcast
12:55 AM 38.3 °F 31.9 °F 31.6 °F 77% 29.72 in 10.0 mi SW 9.2 mph - N/A   Scattered Clouds
1:16 AM 38.3 °F 31.4 °F 31.5 °F 76% 29.72 in 10.0 mi WSW 10.4 mph - N/A   Scattered Clouds
1:36 AM 37.6 °F 30.0 °F 31.5 °F 79% 29.72 in 10.0 mi SW 11.5 mph - N/A   Clear
1:55 AM 37.8 °F 30.7 °F 31.3 °F 77% 29.72 in 10.0 mi SW 10.4 mph - N/A   Clear
2:16 AM 37.9 °F 30.9 °F 30.9 °F 76% 29.71 in 10.0 mi SW 10.4 mph - N/A   Clear
2:36 AM 38.1 °F 30.2 °F 30.9 °F 75% 29.71 in 10.0 mi SW 12.7 mph - N/A   Clear
2:55 AM 37.0 °F 29.3 °F 30.6 °F 77% 29.71 in 10.0 mi SW 11.5 mph - N/A   Clear
3:16 AM 36.7 °F 28.0 °F 30.2 °F 77% 29.70 in 10.0 mi SW 13.8 mph - N/A   Scattered Clouds
3:36 AM 36.1 °F 29.9 °F 29.8 °F 78% 29.72 in 10.0 mi West 8.1 mph - N/A   Scattered Clouds
3:55 AM 34.7 °F 26.4 °F 29.3 °F 81% 29.72 in 10.0 mi West 11.5 mph - N/A   Clear
4:15 AM 34.7 °F 27.5 °F 29.3 °F 81% 29.73 in 10.0 mi West 9.2 mph - N/A   Clear
4:36 AM 33.4 °F - 28.6 °F 82% 29.72 in 10.0 mi Calm Calm - N/A   Clear
4:56 AM 32.2 °F - 28.0 °F 85% 29.72 in 10.0 mi Calm Calm - N/A   Clear
5:15 AM 32.0 °F 24.2 °F 27.5 °F 83% 29.73 in 10.0 mi WNW 9.2 mph - N/A   Clear
5:35 AM 31.3 °F 23.9 °F 27.0 °F 84% 29.73 in 10.0 mi West 8.1 mph - N/A   Scattered Clouds
5:56 AM 31.5 °F 24.2 °F 27.1 °F 84% 29.74 in 10.0 mi WNW 8.1 mph - N/A   Clear
6:15 AM 32.4 °F 26.0 °F 28.2 °F 85% 29.74 in 10.0 mi WNW 6.9 mph - N/A   Scattered Clouds
6:36 AM 32.9 °F - 28.4 °F 84% 29.74 in 10.0 mi Calm Calm - N/A   Mostly Cloudy
6:56 AM 33.6 °F 30.6 °F 28.8 °F 82% 29.74 in 10.0 mi West 3.5 mph - N/A   Overcast
7:16 AM 36.7 °F 28.4 °F 30.2 °F 77% 29.76 in 10.0 mi WNW 12.7 mph - N/A   Overcast
7:36 AM 36.5 °F 27.0 °F 30.2 °F 78% 29.78 in 10.0 mi WNW 16.1 mph - N/A   Mostly Cloudy
7:55 AM 36.5 °F 27.8 °F 30.2 °F 78% 29.79 in 10.0 mi WNW 13.8 mph 21.9 mph N/A   Mostly Cloudy
8:16 AM 36.0 °F 28.0 °F 30.0 °F 79% 29.79 in 10.0 mi WNW 11.5 mph - N/A   Scattered Clouds
8:36 AM 35.6 °F 26.6 °F 30.2 °F 81% 29.80 in 10.0 mi WNW 13.8 mph - N/A   Scattered Clouds
8:55 AM 36.1 °F 26.2 °F 30.2 °F 79% 29.81 in 10.0 mi West 17.3 mph - N/A   Scattered Clouds
9:15 AM 37.4 °F 28.5 °F 30.7 °F 77% 29.83 in 10.0 mi WNW 15.0 mph - N/A   Mostly Cloudy
9:36 AM 37.4 °F 28.2 °F 30.9 °F 77% 29.83 in 10.0 mi WNW 16.1 mph 24.2 mph N/A   Overcast
9:55 AM 37.4 °F 28.2 °F 31.1 °F 78% 29.85 in 10.0 mi WNW 16.1 mph - N/A   Mostly Cloudy
10:16 AM 37.4 °F 28.2 °F 31.1 °F 78% 29.85 in 10.0 mi WNW 16.1 mph - N/A   Mostly Cloudy
10:36 AM 38.1 °F 28.4 °F 31.1 °F 76% 29.86 in 10.0 mi WNW 18.4 mph 23.0 mph N/A   Clear
10:55 AM 38.3 °F 29.7 °F 31.6 °F 77% 29.87 in 10.0 mi WNW 15.0 mph - N/A   Clear
11:16 AM 38.3 °F 28.4 °F 31.8 °F 77% 29.88 in 10.0 mi WNW 19.6 mph 23.0 mph N/A   Clear
11:36 AM 38.3 °F 28.1 °F 31.6 °F 77% 29.88 in 10.0 mi WNW 20.7 mph 24.2 mph N/A   Scattered Clouds
11:56 AM 38.5 °F 27.8 °F 31.8 °F 77% 29.88 in 10.0 mi WNW 23.0 mph 27.6 mph N/A   Mostly Cloudy
12:16 PM 37.8 °F 27.7 °F 31.5 °F 78% 29.88 in 10.0 mi WNW 19.6 mph 25.3 mph N/A   Overcast
12:36 PM 37.4 °F 25.2 °F 30.2 °F 75% 29.89 in 10.0 mi WNW 28.8 mph 39.1 mph N/A   Overcast
12:56 PM 36.9 °F 24.0 °F 28.4 °F 71% 29.90 in 10.0 mi WNW 31.1 mph 40.3 mph N/A   Overcast
1:15 PM 34.7 °F 20.9 °F 27.3 °F 74% 29.92 in 10.0 mi NW 32.2 mph 40.3 mph N/A   Overcast
1:36 PM 30.7 °F 16.4 °F 26.8 °F 85% 29.95 in 10.0 mi NNW 27.6 mph 32.2 mph N/A   Overcast
1:56 PM 28.4 °F 13.3 °F 23.4 °F 81% 29.97 in 10.0 mi NW 27.6 mph 34.5 mph N/A   Overcast
2:16 PM 25.7 °F 10.8 °F 19.9 °F 79% 29.99 in 10.0 mi NW 23.0 mph 34.5 mph N/A   Mostly Cloudy
2:36 PM 23.9 °F 5.9 °F 17.8 °F 77% 30.01 in 10.0 mi NW 33.4 mph 41.4 mph N/A   Overcast
2:56 PM 22.3 °F 5.6 °F 14.2 °F 71% 30.03 in 10.0 mi NW 25.3 mph 40.3 mph N/A   Mostly Cloudy
3:16 PM 20.3 °F 4.8 °F 14.2 °F 77% 30.05 in 10.0 mi NW 19.6 mph 29.9 mph N/A   Mostly Cloudy
3:35 PM 19.8 °F 3.3 °F 13.6 °F 77% 30.06 in 10.0 mi NW 21.9 mph 28.8 mph N/A Snow Light Snow
3:56 PM 19.2 °F 3.8 °F 12.9 °F 76% 30.09 in 10.0 mi NW 18.4 mph 28.8 mph N/A   Overcast
4:16 PM 17.6 °F -1.0 °F 10.2 °F 73% 30.11 in 10.0 mi NW 26.5 mph 36.8 mph N/A   Overcast
4:36 PM 15.3 °F -5.1 °F 7.9 °F 73% 30.14 in 10.0 mi NW 29.9 mph 41.4 mph N/A   Mostly Cloudy
4:56 PM 13.8 °F -7.4 °F 5.5 °F 70% 30.16 in 10.0 mi WNW 31.1 mph 39.1 mph N/A   Scattered Clouds
5:15 PM 12.7 °F -7.5 °F 5.9 °F 74% 30.18 in 10.0 mi NW 26.5 mph 32.2 mph N/A   Scattered Clouds
5:35 PM 11.3 °F -10.1 °F 2.8 °F 69% 30.20 in 10.0 mi NW 28.8 mph 42.6 mph N/A   Scattered Clouds
5:56 PM 10.2 °F -10.9 °F 3.0 °F 73% 30.22 in 10.0 mi WNW 26.5 mph 36.8 mph N/A   Clear
6:16 PM 9.5 °F -10.3 °F 1.0 °F 69% 30.23 in 10.0 mi NW 21.9 mph 38.0 mph N/A   Clear
6:35 PM 8.6 °F -11.0 °F 0.7 °F 70% 30.24 in 10.0 mi NW 20.7 mph 33.4 mph N/A   Clear
6:56 PM 8.1 °F -13.0 °F 0.7 °F 72% 30.26 in 10.0 mi NW 24.2 mph 36.8 mph N/A   Clear
7:16 PM 7.3 °F -12.6 °F 0.3 °F 73% 30.27 in 10.0 mi NW 20.7 mph 31.1 mph N/A   Clear
7:35 PM 6.8 °F -14.3 °F -0.0 °F 74% 30.27 in 10.0 mi NW 23.0 mph 28.8 mph N/A   Clear
7:55 PM 6.1 °F -14.8 °F -0.8 °F 73% 30.28 in 10.0 mi NW 21.9 mph 33.4 mph N/A   Clear
8:16 PM 5.4 °F -16.6 °F -1.1 °F 75% 30.29 in 10.0 mi NW 24.2 mph 29.9 mph N/A   Clear
8:35 PM 5.0 °F -16.2 °F -2.0 °F 73% 30.29 in 10.0 mi NW 21.9 mph 26.5 mph N/A   Clear
8:55 PM 4.8 °F -15.5 °F -1.8 °F 74% 30.30 in 10.0 mi NW 19.6 mph 25.3 mph N/A   Clear
9:15 PM 4.5 °F -13.0 °F -2.2 °F 74% 30.30 in 10.0 mi NW 13.8 mph 26.5 mph N/A   Clear
9:35 PM 3.9 °F -15.0 °F -2.2 °F 76% 30.30 in 10.0 mi NW 16.1 mph 24.2 mph N/A   Clear
9:56 PM 3.6 °F -12.6 °F -2.4 °F 76% 30.31 in 10.0 mi NW 11.5 mph 18.4 mph N/A   Clear
10:16 PM 3.2 °F -15.3 °F -3.1 °F 75% 30.32 in 10.0 mi NW 15.0 mph 21.9 mph N/A   Clear
10:35 PM 3.2 °F -17.1 °F -3.3 °F 74% 30.33 in 10.0 mi WNW 18.4 mph - N/A   Clear
10:56 PM 3.2 °F -14.6 °F -3.3 °F 74% 30.33 in 10.0 mi NW 13.8 mph 23.0 mph N/A   Clear
11:15 PM 2.7 °F -13.8 °F -3.5 °F 76% 30.32 in 10.0 mi NW 11.5 mph - N/A   Clear
11:36 PM 2.3 °F -15.7 °F -3.6 °F 76% 30.33 in 10.0 mi WNW 13.8 mph - N/A   Clear
11:56 PM 2.3 °F -16.4 °F -4.0 °F 75% 30.33 in 10.0 mi NW 15.0 mph 19.6 mph N/A   Clear